Weather History for Ogden Hill AFB, UT

Change the Weather History Date:

Sunday, November 11, 2012

  Actual Average Record
Temperature  
Mean Temperature 26 °F -  
Max Temperature 28 °F 45 °F 64 °F (1999)
Min Temperature 22 °F 31 °F 19 °F (2000)
Degree Days  
Heating Degree Days 39    
Moisture  
Dew Point 21 °F    
Average Humidity 79    
Maximum Humidity 100    
Minimum Humidity 62    
Precipitation  
Precipitation 0.00 in - - ()
Sea Level Pressure  
Sea Level Pressure 30.28 in    
Wind  
Wind Speed 9 mph (South)    
Max Wind Speed 16 mph    
Max Gust Speed -    
Visibility 9 miles    
Events Snow    
Averages and records for this station are not official NWS values.
T = Trace of Precipitation, MM = Missing Value Source: NWS Daily Summary

Daily Weather History Graph

Daily Weather History Graph

Search for Another Location

Airport:

Trip Planner

Search our weather history database for the weather conditions in past years. The results will help you decide how hot, cold, wet, or windy it might be!

Date:

Astronomy

Nov. 11, 2012 Rise Set
Actual Time 7:11 AM MST 5:11 PM MST
Civil Twilight 6:42 AM MST 5:41 PM MST
Nautical Twilight 6:09 AM MST 6:14 PM MST
Astronomical Twilight 5:36 AM MST 6:46 PM MST
Moon 4:28 AM MST (11/11) 3:38 PM MST (11/11)
Length of Visible Light 10h 59m
Length of Day
10h 00m
Waning Crescent, 7% of the Moon is Illuminated
Nov 11
Waning Crescent
Nov 13
New
Nov 20
First Quarter
Nov 28
Full
Dec 6
Last Quarter

Hourly Weather History & Observations

Time (MST) Temp. Windchill Dew Point Humidity Pressure Visibility Wind Dir Wind Speed Gust Speed Precip Events Conditions
12:00 AM 26.6 °F 17.5 °F 24.8 °F 93% 30.03 in 1.5 mi South 9.2 mph - N/A Snow Light Snow
12:04 AM 26.6 °F 17.5 °F 24.8 °F 93% 30.04 in 1.8 mi South 9.2 mph - N/A Snow Light Snow
12:05 AM 26.6 °F 18.2 °F 24.8 °F 93% 30.04 in 2.0 mi South 8.1 mph - N/A Snow Light Snow
12:07 AM 26.6 °F 18.2 °F 24.8 °F 93% 30.04 in 3.0 mi South 8.1 mph - N/A Snow Light Snow
12:10 AM 26.6 °F 18.2 °F 24.8 °F 93% 30.04 in 5.0 mi SSW 8.1 mph - N/A Snow Light Snow
12:14 AM 26.6 °F 17.5 °F 24.8 °F 93% 30.04 in 7.0 mi SSW 9.2 mph - N/A Snow Light Snow
12:22 AM 26.6 °F 20.0 °F 24.8 °F 93% 30.04 in 8.0 mi South 5.8 mph - N/A Snow Light Snow
12:30 AM 26.6 °F 19.1 °F 24.8 °F 93% 30.04 in 10.0 mi South 6.9 mph - N/A   Mostly Cloudy
12:32 AM 26.6 °F 19.1 °F 24.8 °F 93% 30.04 in 10.0 mi SSW 6.9 mph - N/A   Mostly Cloudy
12:35 AM 26.6 °F 19.1 °F 24.8 °F 93% 30.05 in 10.0 mi SSW 6.9 mph - N/A   Overcast
12:36 AM 26.6 °F 18.2 °F 24.8 °F 93% 30.05 in 10.0 mi SSW 8.1 mph - N/A   Overcast
12:40 AM 26.6 °F 17.5 °F 24.8 °F 93% 30.05 in 10.0 mi South 9.2 mph - N/A   Overcast
12:55 AM 26.1 °F 18.4 °F 25.3 °F 97% 30.05 in 10.0 mi SSW 6.9 mph - 0.00 in Snow Light Snow
1:06 AM 26.6 °F 21.2 °F 24.8 °F 93% 30.06 in 10.0 mi South 4.6 mph - N/A   Overcast
1:36 AM 26.6 °F 19.1 °F 24.8 °F 93% 30.06 in 10.0 mi South 6.9 mph - N/A Snow Light Snow
1:51 AM 26.6 °F 19.1 °F 24.8 °F 93% 30.06 in 10.0 mi South 6.9 mph - N/A Snow Light Snow
1:55 AM 26.1 °F 17.6 °F 25.2 °F 96% 30.06 in 10.0 mi South 8.1 mph - 0.00 in Snow Light Snow
2:11 AM 26.6 °F 22.6 °F 24.8 °F 93% 30.07 in 10.0 mi South 3.5 mph - N/A Snow Light Snow
2:22 AM 24.8 °F 19.1 °F 24.8 °F 100% 30.09 in 10.0 mi SSW 4.6 mph - N/A   Mostly Cloudy
2:33 AM 24.8 °F 16.9 °F 23.0 °F 93% 30.09 in 10.0 mi SSW 6.9 mph - N/A   Overcast
2:49 AM 26.6 °F 17.5 °F 24.8 °F 93% 30.09 in 10.0 mi South 9.2 mph - N/A   Overcast
2:55 AM 25.5 °F 16.9 °F 23.7 °F 93% 30.10 in 10.0 mi SSW 8.1 mph - 0.00 in   Mostly Cloudy
3:20 AM 24.8 °F 17.9 °F 24.8 °F 100% 30.11 in 10.0 mi SW 5.8 mph - N/A Snow Light Snow
3:35 AM 26.6 °F 20.0 °F 24.8 °F 93% 30.12 in 9.0 mi West 5.8 mph - N/A Snow Light Snow
3:43 AM 24.8 °F 15.3 °F 23.0 °F 93% 30.12 in 4.0 mi WNW 9.2 mph - N/A Snow Light Snow
3:52 AM 24.8 °F 16.9 °F 23.0 °F 93% 30.12 in 4.0 mi WNW 6.9 mph - N/A Snow Light Snow
3:53 AM 24.8 °F 16.1 °F 21.2 °F 86% 30.12 in 5.0 mi WNW 8.1 mph - N/A Snow Light Snow
3:55 AM 25.7 °F 17.1 °F 21.6 °F 84% 30.12 in 7.0 mi WNW 8.1 mph - 0.00 in Snow Light Snow
4:00 AM 26.6 °F 19.1 °F 21.2 °F 80% 30.12 in 10.0 mi WNW 6.9 mph - N/A   Overcast
4:55 AM 26.1 °F 16.8 °F 18.3 °F 73% 30.15 in 10.0 mi NNW 9.2 mph - 0.00 in   Overcast
5:43 AM 26.6 °F 21.2 °F 19.4 °F 74% 30.17 in 10.0 mi NNW 4.6 mph - N/A   Overcast
5:55 AM 25.3 °F 17.6 °F 19.2 °F 78% 30.17 in 10.0 mi Variable 6.9 mph - N/A   Mostly Cloudy
6:22 AM 24.8 °F 16.1 °F 17.6 °F 74% 30.20 in 10.0 mi NNW 8.1 mph - N/A   Overcast
6:41 AM 24.8 °F 16.9 °F 17.6 °F 74% 30.22 in 10.0 mi NW 6.9 mph - N/A   Overcast
6:47 AM 24.8 °F 16.1 °F 17.6 °F 74% 30.22 in 10.0 mi NW 8.1 mph - N/A   Overcast
6:55 AM 24.8 °F 16.1 °F 16.5 °F 71% 30.23 in 10.0 mi NW 8.1 mph - N/A   Overcast
7:06 AM 24.8 °F 16.9 °F 17.6 °F 74% 30.22 in 10.0 mi NW 6.9 mph - N/A   Mostly Cloudy
9:55 AM 27.3 °F 17.7 °F 18.3 °F 69% 30.30 in 10.0 mi NNW 10.4 mph - N/A   Clear
10:55 AM 28.0 °F 18.1 °F 17.4 °F 64% 30.33 in 10.0 mi NNW 11.5 mph - N/A   Clear
11:23 AM 26.6 °F 19.1 °F 17.6 °F 69% 30.35 in 10.0 mi SSW 6.9 mph - N/A   Mostly Cloudy
11:55 AM 27.3 °F 19.9 °F 17.1 °F 65% 30.34 in 10.0 mi West 6.9 mph - N/A   Overcast
12:33 PM 26.6 °F 16.2 °F 21.2 °F 80% 30.35 in 10.0 mi SSW 11.5 mph - N/A   Overcast
12:45 PM 26.6 °F 16.2 °F 23.0 °F 86% 30.35 in 10.0 mi SSW 11.5 mph - N/A   Mostly Cloudy
12:51 PM 26.6 °F 16.2 °F 21.2 °F 80% 30.35 in 10.0 mi South 11.5 mph - N/A   Mostly Cloudy
12:53 PM 26.6 °F 16.2 °F 21.2 °F 80% 30.35 in 9.0 mi South 11.5 mph - N/A Snow Light Snow
12:55 PM 26.6 °F 15.7 °F 21.9 °F 82% 30.35 in 8.0 mi South 12.7 mph - 0.00 in Snow Light Snow
12:56 PM 26.6 °F 16.2 °F 21.2 °F 80% 30.35 in 8.0 mi South 11.5 mph - N/A Snow Light Snow
12:57 PM 26.6 °F 16.2 °F 21.2 °F 80% 30.35 in 7.0 mi South 11.5 mph - N/A Snow Light Snow
1:13 PM 26.6 °F 16.8 °F 21.2 °F 80% 30.35 in 10.0 mi South 10.4 mph - N/A Snow Light Snow
1:14 PM 26.6 °F 17.5 °F 21.2 °F 80% 30.35 in 10.0 mi South 9.2 mph - N/A   Mostly Cloudy
1:15 PM 26.6 °F 17.5 °F 21.2 °F 80% 30.35 in 10.0 mi South 9.2 mph - N/A Snow Light Snow
1:20 PM 26.6 °F 17.5 °F 21.2 °F 80% 30.35 in 10.0 mi South 9.2 mph - N/A Snow Light Snow
1:23 PM 26.6 °F 18.2 °F 21.2 °F 80% 30.36 in 8.0 mi South 8.1 mph - N/A Snow Light Snow
1:24 PM 26.6 °F 18.2 °F 21.2 °F 80% 30.36 in 8.0 mi South 8.1 mph - N/A Snow Light Snow
1:26 PM 26.6 °F 18.2 °F 21.2 °F 80% 30.36 in 8.0 mi South 8.1 mph - N/A Snow Light Snow
1:34 PM 26.6 °F 20.0 °F 21.2 °F 80% 30.36 in 10.0 mi SSE 5.8 mph - N/A   Overcast
1:40 PM 26.6 °F 21.2 °F 19.4 °F 74% 30.36 in 10.0 mi SSW 4.6 mph - N/A Snow Light Snow
1:46 PM 28.4 °F 24.6 °F 19.4 °F 69% 30.36 in 9.0 mi SSE 3.5 mph - N/A Snow Light Snow
1:55 PM 27.7 °F 22.4 °F 19.8 °F 72% 30.36 in 10.0 mi South 4.6 mph - 0.00 in Snow Light Snow
1:58 PM 28.4 °F 22.2 °F 19.4 °F 69% 30.37 in 10.0 mi SSE 5.8 mph - N/A   Mostly Cloudy
2:19 PM 28.4 °F 19.7 °F 21.2 °F 74% 30.37 in 10.0 mi South 9.2 mph - N/A   Overcast
2:21 PM 28.4 °F 19.7 °F 21.2 °F 74% 30.37 in 10.0 mi South 9.2 mph - N/A   Overcast
2:30 PM 26.6 °F 16.8 °F 21.2 °F 80% 30.37 in 10.0 mi SSE 10.4 mph - N/A   Overcast
2:39 PM 26.6 °F 16.2 °F 19.4 °F 74% 30.37 in 10.0 mi SSE 11.5 mph - N/A Snow Light Snow
2:49 PM 26.6 °F 17.5 °F 19.4 °F 74% 30.38 in 10.0 mi South 9.2 mph - N/A   Mostly Cloudy
2:55 PM 27.0 °F 16.7 °F 19.4 °F 73% 30.38 in 10.0 mi South 11.5 mph - 0.00 in   Mostly Cloudy
2:59 PM 26.6 °F 16.2 °F 19.4 °F 74% 30.38 in 10.0 mi South 11.5 mph - N/A   Scattered Clouds
3:00 PM 26.6 °F 16.8 °F 19.4 °F 74% 30.38 in 10.0 mi South 10.4 mph - N/A   Mostly Cloudy
3:12 PM 26.6 °F 16.8 °F 19.4 °F 74% 30.38 in 10.0 mi SSE 10.4 mph - N/A Snow Light Snow
3:13 PM 26.6 °F 16.8 °F 19.4 °F 74% 30.38 in 10.0 mi SSE 10.4 mph - N/A Snow Light Snow
3:19 PM 26.6 °F 16.2 °F 19.4 °F 74% 30.38 in 10.0 mi SSE 11.5 mph - N/A Snow Light Snow
3:21 PM 26.6 °F 16.2 °F 19.4 °F 74% 30.38 in 10.0 mi SSE 11.5 mph - N/A   Mostly Cloudy
3:33 PM 26.6 °F 16.2 °F 19.4 °F 74% 30.38 in 10.0 mi SSE 11.5 mph - N/A Snow Light Snow
3:46 PM 26.6 °F 16.8 °F 19.4 °F 74% 30.39 in 10.0 mi SSE 10.4 mph - N/A   Overcast
3:55 PM 27.7 °F 18.2 °F 19.2 °F 71% 30.39 in 10.0 mi SSE 10.4 mph - 0.00 in   Overcast
4:11 PM 26.6 °F 16.8 °F 19.4 °F 74% 30.39 in 10.0 mi SSE 10.4 mph - N/A   Overcast
4:13 PM 26.6 °F 16.8 °F 17.6 °F 69% 30.40 in 10.0 mi SSE 10.4 mph - N/A   Overcast
4:49 PM 26.6 °F 16.8 °F 17.6 °F 69% 30.41 in 10.0 mi SSE 10.4 mph - N/A   Overcast
4:51 PM 26.6 °F 16.8 °F 17.6 °F 69% 30.41 in 10.0 mi SSE 10.4 mph - N/A   Overcast
4:55 PM 27.3 °F 17.7 °F 18.1 °F 68% 30.41 in 10.0 mi SSE 10.4 mph - N/A   Overcast
4:56 PM 26.6 °F 16.2 °F 17.6 °F 69% 30.41 in 10.0 mi SSE 11.5 mph - N/A   Overcast
5:05 PM 26.6 °F 16.8 °F 17.6 °F 69% 30.41 in 10.0 mi SSE 10.4 mph - N/A   Mostly Cloudy
5:26 PM 26.6 °F 16.2 °F 17.6 °F 69% 30.41 in 10.0 mi SSE 11.5 mph - N/A   Overcast
5:55 PM 27.7 °F 17.6 °F 18.0 °F 67% 30.43 in 10.0 mi South 11.5 mph - N/A   Overcast
6:20 PM 26.6 °F 15.7 °F 17.6 °F 69% 30.43 in 10.0 mi SSE 12.7 mph - N/A   Overcast
6:32 PM 26.6 °F 15.2 °F 17.6 °F 69% 30.44 in 10.0 mi SSE 13.8 mph - N/A   Overcast
6:46 PM 26.6 °F 15.7 °F 17.6 °F 69% 30.45 in 10.0 mi SSE 12.7 mph - N/A   Overcast
6:51 PM 26.6 °F 14.7 °F 17.6 °F 69% 30.45 in 10.0 mi SSE 15.0 mph - N/A   Overcast
6:55 PM 26.6 °F 14.7 °F 17.4 °F 68% 30.44 in 10.0 mi SSE 15.0 mph - N/A   Mostly Cloudy
7:00 PM 26.6 °F 14.3 °F 17.6 °F 69% 30.46 in 10.0 mi SSE 16.1 mph - N/A   Scattered Clouds
7:55 PM 26.6 °F 16.8 °F 16.2 °F 65% 30.47 in 10.0 mi South 10.4 mph - N/A   Clear
8:55 PM 25.9 °F 14.3 °F 15.6 °F 65% 30.49 in 10.0 mi South 13.8 mph - N/A   Clear
9:55 PM 25.7 °F 15.1 °F 14.2 °F 62% 30.49 in 10.0 mi South 11.5 mph - N/A   Clear
10:55 PM 25.2 °F 13.9 °F 14.9 °F 65% 30.50 in 10.0 mi South 12.7 mph - N/A   Clear
11:55 PM 22.8 °F 14.5 °F 14.7 °F 71% 30.52 in 10.0 mi SE 6.9 mph - N/A   Clear